sat.trackr.live / text

‹ back to catalog

STARLINK-2151

NORAD 48556 · 2021-041D

PAYLOAD ACTIVE UNKNOWN

§ Identity

Operator
Country
US
Launch date
2021-05-15
Launch site
AFETR
Launch vehicle
Mass (kg)
RCS (m²)

Purposes: comms

External: N2YO · Heavens-Above · Gunter

§ Orbital elements

Epoch: 2026-09-04T00:22:57.989280Z

Period
94.01 min
Inclination
53.1609°
Eccentricity
0.0001027
Mean motion
15.31718444 rev/d
Perigee alt
470.0 km
Apogee alt
471.4 km
Semi-major
6,848.8 km
B*
1.7019e-4
RAAN
32.5745°
Arg perigee
89.6737°
Mean anomaly
270.4382°
Rev number
29,237

§ Raw data

STARLINK-21511 48556U 21041D   26247.01594895  .00004923  00000+0  17019-3 0  99962 48556  53.1609  32.5745 0001027  89.6737 270.4382 15.31718444292377

JSON: /api/v1/satellites/48556 · /tle

For live sub-satellite position, see the globe view (requires WebGL).

§ Visibility from observer

Set your observer location to see the next 7 days of passes ≥ 10°. The values pass through the URL so the page stays shareable.

No JS? Fill the form by hand. The geolocation button needs JavaScript.